GLO2044 SBGL-SBCT

Flight info

Callsign GLO2044
Flight time N/A
Altitude 38000
Route NAXOP UZ45 RAXIT
Aircraft B38M/M-DFGHIJ4J7KLORWXY/LB1

Departure

Time 2026-04-27 07:17
Airport Rio Galeão – Tom Jobim International Airport (SBGL)

Arrival

Time N/A
Airport Curitiba-Afonso Pena International Airport (SBCT)
Time Latitude Longitude Altitude Speed Heading
2026-04-27 07:17 -22.89725 -43.18423 10927 ft 321 kts 236°
2026-04-27 07:17 -22.91037 -43.20413 11599 ft 325 kts 236°
2026-04-27 07:18 -22.92346 -43.22428 12384 ft 329 kts 237°
2026-04-27 07:18 -22.93665 -43.24469 13143 ft 332 kts 237°
2026-04-27 07:18 -22.94993 -43.26538 13910 ft 336 kts 237°
2026-04-27 07:18 -22.96319 -43.28594 14624 ft 338 kts 237°
2026-04-27 07:19 -22.97677 -43.30713 15444 ft 337 kts 238°
2026-04-27 07:19 -22.99000 -43.32785 16118 ft 341 kts 238°
2026-04-27 07:19 -23.00360 -43.34901 16889 ft 341 kts 238°
2026-04-27 07:19 -23.01716 -43.37023 17586 ft 343 kts 238°
2026-04-27 07:20 -23.03082 -43.39157 18261 ft 345 kts 238°
2026-04-27 07:20 -23.04454 -43.41308 18822 ft 347 kts 238°
2026-04-27 07:20 -23.05834 -43.43469 19355 ft 350 kts 239°
2026-04-27 07:20 -23.07226 -43.45650 19884 ft 353 kts 239°
2026-04-27 07:21 -23.08627 -43.47847 20413 ft 355 kts 239°
2026-04-27 07:21 -23.10038 -43.50059 20933 ft 357 kts 239°
2026-04-27 07:21 -23.11458 -43.52288 21452 ft 360 kts 239°
2026-04-27 07:21 -23.12886 -43.54529 21959 ft 362 kts 239°
2026-04-27 07:22 -23.14327 -43.56792 22462 ft 365 kts 240°
2026-04-27 07:22 -23.15774 -43.59067 22959 ft 367 kts 240°
2026-04-27 07:22 -23.17230 -43.61358 23450 ft 369 kts 240°
2026-04-27 07:22 -23.18695 -43.63663 23863 ft 372 kts 240°
2026-04-27 07:23 -23.20167 -43.65980 24255 ft 374 kts 240°
2026-04-27 07:23 -23.21653 -43.68322 24648 ft 377 kts 240°
2026-04-27 07:23 -23.23126 -43.70646 25041 ft 379 kts 240°
2026-04-27 07:23 -23.24630 -43.73020 25428 ft 382 kts 240°
2026-04-27 07:24 -23.26145 -43.75410 25815 ft 385 kts 240°
2026-04-27 07:24 -23.27668 -43.77816 26207 ft 387 kts 240°
2026-04-27 07:24 -23.29200 -43.80237 26597 ft 390 kts 240°
2026-04-27 07:24 -23.30741 -43.82674 26972 ft 392 kts 240°
2026-04-27 07:25 -23.32292 -43.85129 27339 ft 395 kts 240°
2026-04-27 07:25 -23.33853 -43.87601 27708 ft 397 kts 240°
2026-04-27 07:25 -23.35424 -43.90089 28071 ft 400 kts 240°
2026-04-27 07:25 -23.37002 -43.92591 28432 ft 402 kts 240°
2026-04-27 07:26 -23.38591 -43.95112 28793 ft 405 kts 240°
2026-04-27 07:26 -23.40190 -43.97651 29148 ft 407 kts 240°
2026-04-27 07:26 -23.41775 -44.00168 29485 ft 410 kts 240°
2026-04-27 07:26 -23.43368 -44.02749 29822 ft 410 kts 244°
2026-04-27 07:27 -23.44583 -44.05542 30106 ft 409 kts 249°
2026-04-27 07:27 -23.45405 -44.07444 30277 ft 412 kts 248°
2026-04-27 07:27 -23.47070 -44.11168 30668 ft 414 kts 248°
2026-04-27 07:27 -23.48350 -44.13988 30968 ft 416 kts 248°
2026-04-27 07:28 -23.49642 -44.16816 31259 ft 418 kts 248°
2026-04-27 07:28 -23.50522 -44.18741 31458 ft 420 kts 248°
2026-04-27 07:28 -23.51826 -44.21590 31746 ft 422 kts 248°
2026-04-27 07:28 -23.53139 -44.24457 32032 ft 424 kts 248°
2026-04-27 07:29 -23.54438 -44.27298 32314 ft 425 kts 248°
2026-04-27 07:29 -23.55762 -44.30195 32590 ft 427 kts 248°
2026-04-27 07:29 -23.57090 -44.33103 32857 ft 430 kts 248°
2026-04-27 07:29 -23.58422 -44.36019 33140 ft 431 kts 248°
2026-04-27 07:30 -23.59757 -44.38945 33500 ft 431 kts 248°
2026-04-27 07:30 -23.61089 -44.41866 33862 ft 431 kts 248°
2026-04-27 07:30 -23.62422 -44.44790 34185 ft 430 kts 248°
2026-04-27 07:30 -23.63750 -44.47706 34547 ft 428 kts 248°
2026-04-27 07:31 -23.65073 -44.50613 34876 ft 427 kts 248°
2026-04-27 07:31 -23.66396 -44.53521 35174 ft 427 kts 248°
2026-04-27 07:31 -23.67714 -44.56420 35480 ft 426 kts 248°
2026-04-27 07:31 -23.69031 -44.59318 35774 ft 425 kts 248°
2026-04-27 07:32 -23.70343 -44.62207 36062 ft 425 kts 248°
2026-04-27 07:32 -23.71653 -44.65095 36339 ft 424 kts 248°
2026-04-27 07:32 -23.72947 -44.67949 36606 ft 424 kts 248°
2026-04-27 07:32 -23.74252 -44.70828 36870 ft 423 kts 248°
2026-04-27 07:33 -23.75555 -44.73705 37131 ft 422 kts 248°
2026-04-27 07:33 -23.76856 -44.76578 37379 ft 422 kts 248°
2026-04-27 07:33 -23.78154 -44.79448 37626 ft 421 kts 248°
2026-04-27 07:33 -23.79452 -44.82317 37854 ft 421 kts 248°
2026-04-27 07:34 -23.80748 -44.85186 37913 ft 421 kts 248°
2026-04-27 07:34 -23.83329 -44.90903 37905 ft 418 kts 248°
2026-04-27 07:35 -23.85885 -44.96573 37908 ft 418 kts 248°
2026-04-27 07:35 -23.88456 -45.02280 37913 ft 418 kts 248°
2026-04-27 07:36 -23.91023 -45.07988 37917 ft 418 kts 248°
2026-04-27 07:36 -23.93590 -45.13701 37916 ft 418 kts 248°
2026-04-27 07:37 -23.96152 -45.19410 37920 ft 418 kts 248°
2026-04-27 07:37 -23.98713 -45.25124 37920 ft 418 kts 248°
2026-04-27 07:38 -24.01271 -45.30839 37920 ft 418 kts 248°
2026-04-27 07:38 -24.03828 -45.36561 37923 ft 418 kts 248°
2026-04-27 07:39 -24.06380 -45.42274 37925 ft 418 kts 248°
2026-04-27 07:39 -24.08912 -45.47951 37929 ft 418 kts 248°
2026-04-27 07:40 -24.11458 -45.53669 37925 ft 417 kts 248°
2026-04-27 07:40 -24.13996 -45.59374 37926 ft 417 kts 248°
2026-04-27 07:41 -24.16532 -45.65082 37930 ft 416 kts 248°
2026-04-27 07:41 -24.19061 -45.70779 37926 ft 416 kts 248°
2026-04-27 07:42 -24.21587 -45.76479 37927 ft 416 kts 248°
2026-04-27 07:42 -24.24110 -45.82178 37926 ft 415 kts 248°
2026-04-27 07:43 -24.26626 -45.87868 37926 ft 415 kts 248°
2026-04-27 07:43 -24.29140 -45.93563 37924 ft 415 kts 248°
2026-04-27 07:44 -24.31649 -45.99251 37930 ft 414 kts 248°
2026-04-27 07:44 -24.34156 -46.04941 37935 ft 414 kts 248°
2026-04-27 07:45 -24.36640 -46.10588 37925 ft 413 kts 248°
2026-04-27 07:45 -24.39138 -46.16273 37923 ft 413 kts 248°
2026-04-27 07:46 -24.41633 -46.21957 37929 ft 413 kts 248°
2026-04-27 07:46 -24.44122 -46.27637 37925 ft 413 kts 248°
2026-04-27 07:47 -24.46609 -46.33319 37933 ft 413 kts 248°
2026-04-27 07:47 -24.49094 -46.39003 37930 ft 412 kts 248°
2026-04-27 07:48 -24.51575 -46.44682 37926 ft 412 kts 249°
2026-04-27 07:48 -24.54048 -46.50353 37919 ft 412 kts 249°
2026-04-27 07:49 -24.56521 -46.56031 37923 ft 412 kts 249°
2026-04-27 07:49 -24.58972 -46.61665 37921 ft 411 kts 249°
2026-04-27 07:50 -24.61437 -46.67339 37922 ft 411 kts 249°
2026-04-27 07:50 -24.63897 -46.73007 37926 ft 411 kts 249°
2026-04-27 07:51 -24.66350 -46.78666 37928 ft 410 kts 249°
2026-04-27 07:51 -24.68804 -46.84337 37926 ft 410 kts 249°
2026-04-27 07:52 -24.71250 -46.89994 37925 ft 409 kts 249°
2026-04-27 07:52 -24.73690 -46.95645 37926 ft 409 kts 249°
2026-04-27 07:53 -24.76119 -47.01276 37365 ft 405 kts 249°
2026-04-27 07:53 -24.77320 -47.04064 36968 ft 399 kts 249°
2026-04-27 07:53 -24.78496 -47.06795 36669 ft 390 kts 249°
2026-04-27 07:53 -24.79650 -47.09477 36198 ft 387 kts 249°
2026-04-27 07:54 -24.80783 -47.12112 35676 ft 386 kts 249°
2026-04-27 07:54 -24.81927 -47.14775 35179 ft 384 kts 249°
2026-04-27 07:54 -24.83065 -47.17424 34695 ft 382 kts 249°
2026-04-27 07:54 -24.84198 -47.20064 34216 ft 380 kts 249°
2026-04-27 07:55 -24.85325 -47.22689 33720 ft 378 kts 249°
2026-04-27 07:55 -24.86445 -47.25303 33198 ft 376 kts 249°
2026-04-27 07:55 -24.87558 -47.27901 32734 ft 374 kts 249°
2026-04-27 07:55 -24.88662 -47.30478 32278 ft 371 kts 249°
2026-04-27 07:56 -24.89758 -47.33038 31826 ft 368 kts 249°
2026-04-27 07:56 -24.90844 -47.35577 31389 ft 365 kts 249°
2026-04-27 07:56 -24.91922 -47.38099 30961 ft 363 kts 250°
2026-04-27 07:56 -24.92993 -47.40605 30534 ft 360 kts 250°
2026-04-27 07:57 -24.94055 -47.43092 30119 ft 358 kts 250°
2026-04-27 07:57 -24.95110 -47.45564 29660 ft 355 kts 250°
2026-04-27 07:57 -24.96160 -47.48025 29214 ft 352 kts 250°
2026-04-27 07:57 -24.97195 -47.50453 28806 ft 349 kts 250°
2026-04-27 07:58 -24.98219 -47.52856 28433 ft 345 kts 250°
2026-04-27 07:58 -24.99232 -47.55235 28055 ft 341 kts 250°
2026-04-27 07:58 -25.00221 -47.57559 27680 ft 337 kts 250°
2026-04-27 07:58 -25.01212 -47.59888 27313 ft 334 kts 250°
2026-04-27 07:59 -25.02206 -47.62226 26952 ft 331 kts 250°
2026-04-27 07:59 -25.02852 -47.63746 26710 ft 329 kts 250°